Birmingham, AL

8:43 AM CDT on August 19, 2017 (GMT -0500)
Birmingham International

Weather History for KBHM - November, 2013

Change the Weather History Date:

Thursday, November 21, 2013

  Actual Average Record
Temperature  
Mean Temperature 60 °F 53 °F  
Max Temperature 66 °F 63 °F 81 °F (1900)
Min Temperature 53 °F 42 °F 22 °F (1937)
Degree Days  
Heating Degree Days 5 13  
Month to date heating degree days 223 204  
Since 1 July heating degree days 320 331  
Growing Degree Days 8 (Base 50)    
Moisture  
Dew Point 48 °F    
Average Humidity 67    
Maximum Humidity 78    
Minimum Humidity 55    
Precipitation  
Precipitation 0.00 in 0.18 in 2.07 in (1967)
Month to date precipitation 1.04 3.24  
Year to date precipitation 57.73 47.66  
Snow  
Snow 0.00 in 0.00 in - ()
Month to date snowfall 0.0 0.0  
Since 1 July snowfall 0.0 0.0  
Since 1 September snowfall 0.0 0.0  
Snow Depth 0.00 in    
Sea Level Pressure  
Sea Level Pressure 30.28 in    
Wind  
Wind Speed 6 mph (ESE)    
Max Wind Speed 12 mph    
Max Gust Speed 18 mph    
Visibility 10 miles    
Events      
T = Trace of Precipitation, MM = Missing Value Source: NWS Daily Summary

Daily Weather History Graph

Daily Weather History Graph

Search for Another Location

Airport or City:

Trip Planner

Search our weather history database for the weather conditions in past years. The results will help you decide how hot, cold, wet, or windy it might be!

Date:

Astronomy

Nov. 21, 2013 Rise Set
Actual Time 6:24 AM CST 4:41 PM CST
Civil Twilight 5:57 AM CST 5:07 PM CST
Nautical Twilight 5:27 AM CST 5:38 PM CST
Astronomical Twilight 4:57 AM CST 6:07 PM CST
Moon 8:15 PM CST (11/21) 9:31 AM CST (11/21)
Length of Visible Light 11h 10m
Length of Day
10h 16m
Waning Gibbous, 85% of the Moon is Illuminated
Nov 21
Waning Gibbous
Nov 25
Last Quarter
Dec 2
New
Dec 9
First Quarter
Dec 17
Full

Hourly Weather History & Observations

Time (CST) Temp. Dew Point Humidity Pressure Visibility Wind Dir Wind Speed Gust Speed Precip Events Conditions
12:53 AM 54.0 °F 39.9 °F 59% 30.27 in 10.0 mi East 5.8 mph - N/A   Mostly Cloudy
1:53 AM 53.1 °F 39.0 °F 59% 30.27 in 10.0 mi ESE 6.9 mph - N/A   Mostly Cloudy
2:53 AM 53.1 °F 39.9 °F 61% 30.27 in 10.0 mi ESE 5.8 mph - N/A   Mostly Cloudy
3:53 AM 53.1 °F 39.9 °F 61% 30.27 in 10.0 mi ESE 5.8 mph - N/A   Overcast
4:53 AM 53.1 °F 42.1 °F 66% 30.28 in 10.0 mi East 5.8 mph - N/A   Overcast
5:53 AM 53.1 °F 43.0 °F 69% 30.29 in 10.0 mi ESE 6.9 mph - N/A   Overcast
6:53 AM 53.1 °F 43.0 °F 69% 30.31 in 10.0 mi ESE 6.9 mph - N/A   Overcast
7:53 AM 54.0 °F 44.1 °F 69% 30.33 in 10.0 mi ESE 5.8 mph - N/A   Overcast
8:53 AM 55.9 °F 45.0 °F 67% 30.33 in 10.0 mi Variable 6.9 mph - N/A   Overcast
9:53 AM 57.0 °F 46.0 °F 67% 30.33 in 10.0 mi SE 4.6 mph - N/A   Overcast
10:53 AM 59.0 °F 46.9 °F 64% 30.31 in 10.0 mi East 9.2 mph - N/A   Overcast
11:53 AM 60.1 °F 48.0 °F 64% 30.29 in 10.0 mi SSE 9.2 mph - N/A   Overcast
12:53 PM 62.1 °F 48.9 °F 62% 30.27 in 10.0 mi Variable 5.8 mph - N/A   Overcast
1:53 PM 64.0 °F 51.1 °F 63% 30.25 in 10.0 mi SE 4.6 mph - N/A   Overcast
2:53 PM 64.9 °F 52.0 °F 63% 30.24 in 10.0 mi ESE 4.6 mph - N/A   Overcast
3:53 PM 64.0 °F 52.0 °F 65% 30.25 in 10.0 mi East 5.8 mph - N/A   Overcast
4:53 PM 64.0 °F 52.0 °F 65% 30.26 in 10.0 mi East 3.5 mph - N/A   Overcast
5:53 PM 64.0 °F 52.0 °F 65% 30.27 in 10.0 mi ESE 4.6 mph - N/A   Overcast
6:53 PM 64.0 °F 53.1 °F 67% 30.27 in 10.0 mi East 4.6 mph - N/A   Mostly Cloudy
7:53 PM 62.1 °F 53.1 °F 72% 30.27 in 10.0 mi ESE 9.2 mph 16.1 mph N/A   Scattered Clouds
8:18 PM 62.6 °F 53.6 °F 72% 30.29 in 10.0 mi SE 9.2 mph 16.1 mph N/A   Mostly Cloudy
8:53 PM 62.1 °F 55.0 °F 78% 30.29 in 10.0 mi SE 8.1 mph - N/A   Overcast
9:53 PM 61.0 °F 53.1 °F 75% 30.30 in 10.0 mi ESE 6.9 mph - N/A   Overcast
10:53 PM 61.0 °F 53.1 °F 75% 30.29 in 10.0 mi Calm Calm - N/A   Overcast
11:53 PM 61.0 °F 52.0 °F 72% 30.30 in 10.0 mi ESE 3.5 mph - N/A   Overcast